Showing default

CORVUS BC1, 42847

Orbit data source: Space-Track

CORVUS BC1, 42847 is a payload satellite owned by Astro Digital (US) in SSO that was launched on Fri, 14 Jul 2017 UTC via a SOYUZ-2-1A launch vehicle from the Tyuratam Missile And Space Complex (TTMTR). Payload-class satellites include a variety of spacecraft equipped with specific instruments for various scientific and technological missions. These include communications satellites like Starlink; space stations such as the ISS; scientific satellites like the Hubble; Earth observation satellites from companies like Planet Labs, Umbra, and HawkEye 360; GPS; miniature CubeSats for education and research; and military/defense satellites.

Loading next visibility...
Identifier
42847, 2017-042Y
Orbit
SSO
Country
Flag of USUS
Related business
Manufacturer
Astro Digital
Mission
Operational Commercial Imaging
Bus & Motor
CUBESAT 6U, Unknown motor
Mass
10 kg wet, 10 kg dry
Launch date (UTC)
2017-07-14 (8 years ago)
Launch vehicle
SOYUZ-2-1A
Launch site
Tyuratam Missile And Space Complex (TTMTR)
Object type
Payload
Rocket body
Debris
Shape & HBR
Box + 2 Pan, 0.2 m
Radar Cross Section
0.092 m², Medium (>0.1 m² and < 1m²)

Expand to show TLE details & history
Last TLE update: 13 hours ago

TLE from 13 hours ago
0 CORVUS BC1
1 42847U 17042Y   25288.99943646  .00005999  00000-0  43472-3 0  9999
2 42847  97.3881  96.2171 0011954 196.3453 163.7390 15.04249732450353
Epoch: 2025-10-15T23:59Z
TLE epoch observation values (Epoch: 2025-10-15T23:59:11.310Z)
Latitude
0.00002°
Longitude
71.65452°
Altitude
564.837 km
Speed
7.574 km/s
True Right ascension
06h 24m 52s
True Declination
0° 00' 00"
Sunlit
Object was in daylight at epoch
Visualization orbit readout
Latitude
Unknown
Longitude
Unknown
Altitude
Unknown
Speed
Unknown
Apparent Right ascension
Unknown
Apparent Declination
Unknown
Sunlit
N/A
Visualization observer readout
Local Sidereal Time
07:52:29
Azimuth
Unknown
Elevation
Unknown
Doppler factor
Unknown
Orbital elements
Apogee altitude
559.079 km
Perigee altitude
542.513 km
Semi-major axis
6,928.933 km
Eccentricity
0.0012
Inclination
97.3881°
RAAN
96.2171°
Arg. of periapsis
196.3453°
True anomaly
163.7773°
Mean anomaly
163.739°
Eccentric anomaly
163.75816°
Mean motion
3.76308 °/min
Orbital period
95.67 mins
BSTAR
0.00043472
Loading maneuver chart data...
Computing Atmospheric mass density...

Documentation

Showing up to 5 results
|